Warning: Javascript must be enabled to use all the features on this page!


Page Loading - Please Wait...

Click to hideNews Bulletins

Peak Streamflow for the Nation

USGS 10343000 INDEPENDENCE C NR TRUCKEE CA

Sierra County, California
Hydrologic Unit Code 16050102
Latitude  39°27'24", Longitude 120°17'10" NAD27
Drainage area 8.10  square miles
Gage datum 6,940.00 feet above NGVD29
Output formats
Table
Graph
Tab-separated file
peakfq (watstore) format
Reselect output format
Water
Year
Date Gage
Height
(feet)
Stream-
flow
(cfs)
1903 1903-05-13   1541,6
1904 1904-05-25   2031,6
1905 1905-05-02   2321,6
1906 1906-06-25   2681,6
1907 1907-06-23 3.90 2866
1968 1968-09-14   64.01,6
1969 1969-05-28 4.70 1636
1970 1969-11-20 4.07 1046
1971 1971-06-20 4.79 1746
1972 1972-05-31 4.35 1286
1973 1973-09-10 5.01 1846
1974 1974-07-09 5.60 2436
1975 1975-06-11 4.96 1756
1976 1975-10-03 3.65 64.06
1977 1977-08-15 4.58 1416
1978 1978-06-14 4.48 1326
1979 1979-05-29 3.99 92.06
1980 1980-05-22 4.01 1526
1981 1980-11-07 3.522 82.06
1982 1981-12-20 6.12 2916
1983 1983-05-29 5.56 2566
1984 1984-06-01 5.24 2246
1985 1985-05-27 3.46 65.06
1986 1986-02-19 5.19 2196
1987 1986-10-03 2.68 17.06
1988 1988-08-24 4.48 1536
1989 1989-06-09 3.71 85.06
1990 1989-11-07 4.03 1116
1991 1991-05-03 3.52 69.06
1992 1992-07-29 3.65 80.06
1993 1993-04-16 8.161 2002,6
1994 1994-05-15 3.13 47.06
1995 1995-04-10 5.92 2856
1996 1996-05-22 4.50 1556
1997 1997-01-03 6.17 3256
1998 1998-06-28 3.83 94.06
1999 1999-06-02 4.31 1366
2000 2000-05-29 3.53 76.06
2001 2000-10-06 4.00 1086
2002 2002-06-05 3.68 85.06
2003 2002-11-12 5.46 2466
2004 2004-04-21 3.77 85.06
2005 2005-05-23 5.81 2826
2006 2005-12-31 5.76 2656
2007 2006-10-04 3.04 47.06
2008 2008-05-16 4.63 1606
2009 2009-05-18 5.68 2676
2010 2010-05-27 4.12 1086
2011 2011-06-23 6.21 2886
2012 2012-05-02 3.92 1056
2013 2012-11-28 4.25 1326
2014 2013-11-05 5.19 2246
2015 2015-03-04 4.86 1606
2016 2016-05-06 5.81 2436
2017 2017-01-11 5.481 1542,6
2018 2018-06-06 4.942 1666
2019 2019-06-06 5.69 2096
2020 2019-12-08 3.552 66.66
?
  Peak Gage-Height Qualification Codes.
?
  Peak Streamflow Qualification Codes.